Regional Weather Roundup
Issued by NWS

Home | Current Version | Previous Version | Text Only | Print | Product List | Glossary On
Versions: 1 2 3 4 5 6 7 8 9 10 11 12 13 14 15 16 17 18 19 20 21 22 23 24 25 26 27 28 29 30 31 32 33 34 35 36 37 38 39 40 41 42 43 44 45 46 47 48 49 50
000
ASUS45 KBOU 011407
RWRCO

WEATHER ROUNDUP FOR COLORADO
NATIONAL WEATHER SERVICE DENVER/BOULDER CO
800 AM MDT MON SEP 01 2014

NOTE: "FAIR" INDICATES FEW OR NO CLOUDS BELOW 12000 FEET WITH NO
SIGNIFICANT WEATHER AND/OR OBSTRUCTIONS TO VISIBILITY.

COZ001>005-013-030-031-011500-
...NORTHWEST COLORADO...

CITY           SKY/WX    TMP DP  RH WIND       PRES   REMARKS
CRAIG          SUNNY     46  42  86 CALM      30.16R
HAYDEN         SUNNY     45  37  76 E10       30.17R
MEEKER         SUNNY     46  38  73 E3        30.17R
MOUNT WERNER   NOT AVBL
STEAMBOAT SPGS SUNNY     41  37  86 CALM      30.19R
WALDEN         MOSUNNY   43  32  65 S10       30.21R
$$

COZ006>008-011-011500-
...WEST CENTRAL VALLEYS...

CITY           SKY/WX    TMP DP  RH WIND       PRES   REMARKS
GRAND JUNCTION SUNNY     57  40  52 SE9       30.06R
MONTROSE       SUNNY     55  39  54 S7        30.14R
EAGLE          SUNNY     45  41  87 CALM      30.22R
RIFLE          SUNNY     50  41  71 CALM      30.14R
DELTA          SUNNY     59  39  48 E6        30.11R
NUCLA          SUNNY     54  36  50 E5        30.16R
$$

COZ017>023-064>068-011500-
...SOUTHWEST COLORADO...

CITY           SKY/WX    TMP DP  RH WIND       PRES   REMARKS
DURANGO          N/A     53  36  52 NE3       30.18R
CORTEZ         SUNNY     52  40  63 NE5       30.15R
PAGOSA SPRINGS NOT AVBL
TELLURIDE      SUNNY     50  34  53 SE6       30.32S
WOLF CREEK PAS SUNNY     43  30  61 SW12      30.48S
$$

COZ009-010-012-014-032>034-037-058>063-011500-
...CENTRAL COLORADO...

CITY           SKY/WX    TMP DP  RH WIND       PRES   REMARKS
ASPEN          SUNNY     45  37  73 S3        30.22R
BUENA VISTA    SUNNY     47  34  62 CALM      30.21S
COPPER MTN     SUNNY     43  23  45 W22       30.41R
BERTHOUD PASS  FAIR      32  30  93 NW23G33   30.40S WCI  19
COTTONWOOD PAS SUNNY     54  28  37 SE5       30.31R
GUNNISON       SUNNY     39  34  81 CALM      30.27R
KREMMLING      SUNNY     37  36  93 CALM      30.24S
LEADVILLE      SUNNY     48  25  40 NE9       30.30R
MONARCH PASS   SUNNY     37  28  70 W30       30.52R
SALIDA         SUNNY     53  45  72 S5        30.27S
SUNLIGHT       SUNNY     43  32  65 CALM      30.38R
WILKERSON PASS NOT AVBL
$$

COZ069>075-011500-
...SAN LUIS VALLEY/SANGRE DE CRISTO MOUNTAINS...

CITY           SKY/WX    TMP DP  RH WIND       PRES   REMARKS
ALAMOSA        MOSUNNY   50  36  58 W3        30.21R
LA VETA PASS   NOT AVBL
SAGUACHE       NOT AVBL
$$

COZ035-036-038>040-011500-
...NORTHERN COLORADO FRONT RANGE...

CITY           SKY/WX    TMP DP  RH WIND       PRES   REMARKS
DENVER INTL AP PTSUNNY   57  47  69 SW3       30.09R
DMNS CITY PARK   N/A     61  48  63 SE2       30.07F
AURORA         PTSUNNY   57  46  67 S6        30.10S
FRONT RANGE AP NOT AVBL
ERIE MUNI ARPT SUNNY     54  52  92 CALM      30.07S
BOULDER MUN AP SUNNY     54  50  87 S3        30.07S
CENTENNIAL     PTSUNNY   52  47  83 CALM      30.10R
BROOMFIELD     MOSUNNY   57  48  72 CALM      30.09S
FORT COLLINS   SUNNY     55  48  76 SE5       30.07S
LONGMONT       SUNNY     57  51  79 CALM      30.08S
$$

COZ041-046-047-076>085-087-088-011500-
...PIKES PEAK/PALMER DIVIDE AND SOUTHERN FOOTHILLS...

CITY           SKY/WX    TMP DP  RH WIND       PRES   REMARKS
COLO. SPRINGS  MOSUNNY   56  44  64 SE9       30.15R
A. F. ACADEMY  SUNNY     54  48  80 SE5       30.14S
ELLICOTT       SUNNY     59  40  49 SE8       30.13R
FALCON         SUNNY     54  43  67 S10       30.17S
FORT CARSON    SUNNY     56  48  73 S13       30.13R
LIMON          PTSUNNY   56  49  77 CALM      30.10R
MONUMENT HILL  SUNNY     52  45  76 S9        30.13F
TRINIDAD       SUNNY     57  48  72 W3        30.13R
$$

COZ042>045-048>051-090-091-011500-
...NORTHEAST COLORADO...

CITY           SKY/WX    TMP DP  RH WIND       PRES   REMARKS
GREELEY ARPT   SUNNY     57  46  67 SE3       30.07S
AKRON          PTSUNNY   59  48  67 W7        30.06R
BURLINGTON     PTSUNNY   58  50  75 NW6       30.05R
WRAY             N/A     56  53  89 W3        30.03R
STERLING       MOSUNNY   55  54  94 CALM      30.03S
HOLYOKE        MOSUNNY   59  52  77 W5        30.03R
FORT MORGAN    PTSUNNY   56  49  77 CALM      30.07R
$$

COZ086-089-092>099-011500-
...SOUTHEAST COLORADO...

CITY           SKY/WX    TMP DP  RH WIND       PRES   REMARKS
PUEBLO         SUNNY     62  49  62 CALM      30.08S
LA JUNTA       SUNNY     61  49  64 S5        30.06S
LAMAR          SUNNY     60  51  72 NW5       30.02S
SPRINGFIELD      N/A     62  50  64 N14       30.04S
$$


USA.gov is the U.S. government's official web portal to all federal, state and local government web resources and services.